STARLINK-1166, 45060

Orbit data source: Space-Track

STARLINK-1166, 45060 is a payload satellite owned by SpaceX/Seattle (US) in LEO that was launched on Wed, 29 Jan 2020 UTC via an FALCON 9 launch vehicle from the Air Force Eastern Test Range (AFETR). Payload-class satellites include a variety of spacecraft equipped with specific instruments for various scientific and technological missions. These include communications satellites like Starlink; space stations such as the ISS; scientific satellites like the Hubble; Earth observation satellites from companies like Planet Labs, Umbra, and HawkEye 360; GPS; miniature CubeSats for education and research; and military/defense satellites.

Loading next visibility...
Identifier
45060, 2020-006S
Orbit
LEO
Country
Flag of USUS
Related business
Manufacturer
SpaceX/Seattle
Mission
Operational Commercial Communications
Bus & Motor
STARLINK, Unknown motor
Mass
260 kg wet, ~248 kg dry
Launch date (UTC)
2020-01-29 (6 years ago)
Launch vehicle
FALCON 9
Launch site
Air Force Eastern Test Range (AFETR)
Object type
Payload
Rocket body
Debris
Shape & HBR
Box + 1 Pan, 10.1 m
Radar Cross Section
13.562 m², Large (>1 m²)

Expand to show TLE details & history
Last TLE update: 21 hours ago

TLE from 21 hours ago
0 STARLINK-1166
1 45060U 20006S   25347.64010946  .00002236  00000-0  16899-3 0  9993
2 45060  53.0551 312.9116 0001500  85.1513 274.9648 15.06396703323499
Epoch: 2025-12-13T15:21Z
TLE epoch observation values (Epoch: 2025-12-13T15:21:45.457Z)
Latitude
0.00005°
Longitude
-0.09225°
Altitude
548.011 km
Speed
7.589 km/s
True Right ascension
20h 51m 38s
True Declination
0° 00' 00"
Sunlit
Object was in daylight at epoch
Visualization orbit readout
Latitude
Unknown
Longitude
Unknown
Altitude
Unknown
Speed
Unknown
Apparent Right ascension
Unknown
Apparent Declination
Unknown
Sunlit
N/A
Visualization observer readout
Local Sidereal Time
10:40:27
Azimuth
Unknown
Elevation
Unknown
Doppler factor
Unknown
Orbital elements
Apogee altitude
548.531 km
Perigee altitude
546.453 km
Semi-major axis
6,925.629 km
Eccentricity
0.00015
Inclination
53.0551°
RAAN
312.9116°
Arg. of periapsis
85.1513°
True anomaly
274.94768°
Mean anomaly
274.9648°
Eccentric anomaly
274.95624°
Mean motion
3.76577 °/min
Orbital period
95.6 mins
BSTAR
0.00016899
Loading maneuver chart data...
Computing Atmospheric mass density...

Documentation

Showing up to 5 results
|